This is the latest recevied weather packets stored in our database for station/object CE2LOH-10. If no packets are shown the sender has not sent any weather packets the latest 10 day(s).
| Time | Temp. | Humidity | Pressure | Rain* | Wind** | Luminosity | Snow |
|---|---|---|---|---|---|---|---|
| 1777766032 | 20.56° C | 37% | 995 hPa | - | - | - | - |
| 1777765132 | 20.56° C | 38% | 995.1 hPa | - | - | - | - |
| 1777764232 | 21.11° C | 38% | 995.2 hPa | - | - | - | - |
| 1777763332 | 21.67° C | 38% | 995.3 hPa | - | - | - | - |
| 1777762432 | 21.67° C | 39% | 994.9 hPa | - | - | - | - |
| 1777761532 | 22.22° C | 38% | 994.6 hPa | - | - | - | - |
| 1777760632 | 22.78° C | 39% | 994 hPa | - | - | - | - |
| 1777759732 | 22.78° C | 38% | 993.6 hPa | - | - | - | - |
| 1777758831 | 23.33° C | 38% | 993.6 hPa | - | - | - | - |
| 1777757931 | 23.33° C | 38% | 993.5 hPa | - | - | - | - |
| 1777757031 | 23.89° C | 37% | 993.4 hPa | - | - | - | - |
| 1777756131 | 24.44° C | 38% | 993 hPa | - | - | - | - |
| 1777755231 | 24.44° C | 37% | 992.7 hPa | - | - | - | - |
| 1777754331 | 24.44° C | 37% | 992.6 hPa | - | - | - | - |
| 1777753431 | 24.44° C | 37% | 992.5 hPa | - | - | - | - |
| 1777752531 | 25° C | 38% | 992.2 hPa | - | - | - | - |
| 1777751630 | 25° C | 37% | 992 hPa | - | - | - | - |
| 1777750730 | 24.44° C | 39% | 991.8 hPa | - | - | - | - |
| 1777749830 | 24.44° C | 40% | 991.8 hPa | - | - | - | - |
| 1777748930 | 23.89° C | 40% | 991.7 hPa | - | - | - | - |
| 1777748030 | 23.89° C | 40% | 992 hPa | - | - | - | - |
| 1777747130 | 23.89° C | 40% | 992 hPa | - | - | - | - |
| 1777746230 | 23.33° C | 41% | 992.2 hPa | - | - | - | - |
| 1777745329 | 23.33° C | 41% | 992.1 hPa | - | - | - | - |
| 1777744429 | 22.78° C | 41% | 992.2 hPa | - | - | - | - |
* Rain since midnight (hover to see other rain measurements)
** Current wind speed in m/s (hover to see current wind gust speed)